Regional Weather Roundup
Issued by NWS

Home | Current Version | Previous Version | Graphics & Text | Print | Product List | Glossary On
Versions: 1 2 3 4 5 6 7 8 9 10 11 12 13 14 15 16 17 18 19 20 21 22 23 24 25 26 27 28 29 30 31 32 33 34 35 36 37 38 39 40 41 42 43 44 45 46 47 48 49 50
000
ASUS45 KABQ 241101
RWRNM
NEW MEXICO REGIONAL WEATHER ROUNDUP
NATIONAL WEATHER SERVICE ALBUQUERQUE NM
500 AM MDT FRI MAR 24 2017

NOTE: "FAIR" MEANS FEW OR NO CLOUDS BELOW 12,000 FEET AGL WITH NO
       SIGNIFICANT WEATHER OR OBSTRUCTIONS TO VISION.

      THIS PRODUCT IS RELEASED AS TWO VERSIONS.  ONE VERSION NEAR
      THE TOP OF THE HOUR CONTAINING PRELIMINARY DATA FROM ALBUQUERQUE
      AND OTHER STATIONS.  A FINAL VERSION WITH ADDITIONAL DATA IS
      ISSUED ABOUT 10 MINUTES AFTER THE HOUR.

NMZ501-503-504-510>518-241200-
NORTHWEST PLATEAU/NORTHCENTRAL MOUNTAINS

CITY           SKY/WX    TMP DP  RH WIND       PRES   REMARKS
FARMINGTON     FAIR      40  32  73 W35G44    29.86R WCI  28
LOS ALAMOS     CLOUDY    37  29  73 NE7G26    29.76R WCI  31
SANTA FE       CLOUDY    36  35  96 SW16G29   29.74R WCI  26
TAOS             N/A     32  25  74 SW12      29.71R VSB 3/4 WCI  23
ANGEL FIRE     LGT SNOW  28  27  93 NW6       29.69R VSB 1   WCI  22

$$
NMZ402-403-502-505>509-241200-
WESTCENTRAL MOUNTAINS/SOUTHWEST MOUNTAINS

CITY           SKY/WX    TMP DP  RH WIND       PRES   REMARKS
GALLUP         FAIR      34  28  79 SW12      30.02F WCI  25
GRANTS         MOCLDY    37  28  71 W30G38    29.93S WCI  24
SILVER CITY    FAIR      40  28  61 W21G29    30.05F WCI  31

$$
NMZ407-409-411-412-241200-
SOUTHERN DESERTS

CITY           SKY/WX    TMP DP  RH WIND       PRES   REMARKS
DEMING         FAIR      44  27  51 W20G26    30.04F
LAS CRUCES     FAIR      42  27  55 W9        30.03S
HOLLOMAN AFB   FAIR      47  27  45 SW9       30.00R
ALAMOGORDO     CLOUDY    46  27  46 SW8       29.99R
T OR C         FAIR      47  26  44 W20       29.94S

$$
NMZ519>523-241200-
CENTRAL VALLEYS/CENTRAL HIGHLANDS

CITY           SKY/WX    TMP DP  RH WIND       PRES   REMARKS
ALBUQUERQUE    CLOUDY    45  28  51 W17G26    29.83S
MORIARTY ARPT  CLOUDY    38  34  87 W18G26    29.79R WCI  28
CLINES CORNERS LGT SNOW  32  29  88 W35G46    29.72F FOG     WCI  17
BELEN          CLOUDY    45  27  49 W18G35    29.87F
SOCORRO        FAIR      47  25  41 W25G40    29.87S

$$
NMZ524>526-539-540-241200-
SOUTHCENTRAL MOUNTAINS

CITY           SKY/WX    TMP DP  RH WIND       PRES   REMARKS
RUIDOSO        NOT AVBL

$$
NMZ527>531-241200-
NORTHEAST HIGHLANDS/NORTHEAST PLAINS

CITY           SKY/WX    TMP DP  RH WIND       PRES   REMARKS
LAS VEGAS      CLOUDY    38  24  57 SW7       29.62R WCI  33
RATON          HVY RAIN  35  31  85 N26G37    29.53R FOG     WCI  22
CLAYTON        FAIR      40  39  97 W30G43    29.34F WCI  28

$$
NMZ532>537-241200-
EASTCENTRAL PLAINS

CITY           SKY/WX    TMP DP  RH WIND       PRES   REMARKS
TUCUMCARI      MOCLDY    51  29  42 W36G51    29.54S
CANNON AFB     FAIR      46  22  39 SW31G39   29.67F
CLOVIS AIRPORT FAIR      45  19  36 SW25G32   29.67F

$$
NMZ028-029-538-241200-
SOUTHEAST PLAINS

CITY           SKY/WX    TMP DP  RH WIND       PRES   REMARKS
ROSWELL        FAIR      51  22  31 W21G31      N/A
ARTESIA        FAIR      52  23  32 W26G38    29.82R
CARLSBAD       FAIR      54  24  31 MISG      29.82F
HOBBS          FAIR      50  19  29 SW18      29.87R


$$



USA.gov is the U.S. government's official web portal to all federal, state and local government web resources and services.